Find Palapa C1

NORAD ID: 23779 Int'l Des: 1996-006 Owner: SINDO/PSN Country: ID operational
HEOCIRCULAR

現在のビュー

3D地球を読み込み中...

Palapa C1について

説明を読み込み中...

次回通過

Passes for default location (London). Set your location on the main map for personalized predictions.

高度履歴

Loading altitude history...

軌道要素

1 23779U 96006A 26151.46085431 -.00000262 00000-0 00000+0 0 9995
2 23779 10.8272 45.9964 0004399 177.7362 346.9777 0.99598891110682
Epoch: May 31, 2026 • Age: 9 hours

現在のステータス

高度 35988.7 km
速度 3.07 km/s
衛星直下点 -8.88°S, 155.43°E
打ち上げ日 Feb 1, 1996
運用期間 30.3 years
タイプ other

技術仕様

分類 Payload
質量 2989.00 kg
乾燥質量 1600.00 kg
総質量 2989.00 kg
長さ 4.50 m
直径 2.80 m
スパン 20.00 m
形状 Box + 2 Pan
製造者 HSES
バスタイプ HS-601
フェーズステータス Unknown Active Status
所有者/国 SINDO/PSN/ID

Most Searched